SCP
0 0 0 0 0 0 0 0 0 -0 0 0 0 0 0 0 0 0 0 0 0 0 0 0 0 0 0 0 0 0 0 0 0 0 0 0 0 0 0 0 0 -0 -0 -0 0
0 0 0 0 0 0 0 0 0 0 0 0 0 0 0 0 0 0 0 0 0 0 0 0 0 0 0 0 0 0 0 0 0 0 0 0 0 0 0 0 0 -0 -0 0 0
0 0 0 0 0 0 0 0 0 0 0 0 0 0 0 0 0 -0 0 0 0 0 0 0 0 0 0 0 0 0 0 0 0 0 0 0 0 0 0 0 0 -0 -0 0 0
0 0 0 0 0 0 0 0 0 0 0 0 0 0 0 0 0 0 0 0 0 -0 0 0 0 0 0 0 0 0 0 0 0 0 0 0 0 0 0 0 0 0 0 0 0
0 0 0 0 0 0 0 0 0 0 0 0 0 0 0 0 0 0 0 0 -0 0 0 0 0 0 0 0 0 0 0 0 0 0 0 0 0 0 0 0 0 0 0 0 0
0 0 0 0 0 0 0 0 0 0 0 0 0 0 0 0 0 0 0 0 0 0 0 0 0 0 0 0 0 0 0 0 0 0 0 0 0 0 0 0 0 0 0 0 0
0 0 0 0 0 0 0 0 0 0 0 0 0 0 0 0 0 0 0 0 0 0 0 0 0 0 0 0 0 0 0 0 0 0 0 0 0 0 0 0 0 0 0 0 0
0 0 0 0 0 0 0 0 0 0 0 0 0 0 0 0 0 0 0 0 0 0 0 0 0 0 0 0 0 0 0 0 0 0 0 0 0 0 0 0 0 0 0 0 0
0 0 0 0 0 0 0 0 0 0 0 0 0 0 0 0 0 0 0 0 0 0 0 0 0 0 0 0 0 0 0 0 0 0 0 0 0 0 0 0 0 0 0 0 0
0 0 0 0 0 0 0 0 0 0 0 0 0 0 0 0 0 0 0 0 0 0 0 0 0 0 0 0 0 0 0 0 0 0 0 0 0 0 0 0 0 0 0 0 0
0 0 0 -0 0 0 0 0 0 0 0 0 0 0 0 0 0 0 0 0 0 0 0 0 0 0 0 0 0 0 0 0 0 0 0 0 0 0 0 0 0 0 0 0 0
0 0 0 -0 0 0 0 0 0 0 0 0 0 0 0 0 0 0 0 0 0 0 0 0 0 0 0 0 0 0 0 0 0 0 0 0 0 0 0 0 0 0 0 0 0
0 0 0 0 0 0 0 0 0 0 0 0 0 0 0 0 0 0 0 0 0 0 0 0 0 0 0 0 0 0 0 0 0 0 0 0 0 0 0 0 0 0 0 0 0
0 0 0 0 0 0 0 0 0 0 0 0 0 0 0 0 0 0 0 0 0 0 0 0 0 0 0 0 0 0 0 0 0 0 0 0 -0 0 0 0 0 0 0 0 0
0 0 0 0 0 0 0 0 0 0 0 0 0 0 0 0 0 0 0 0 0 0 0 0 0 0 0 0 0 0 0 0 0 0 0 0 0 -0 0 0 0 0 0 0 0
0 0 0 0 0 0 0 0 0 0 0 0 0 0 0 0 0 0 0 0 0 0 0 0 0 0 0 0 0 0 0 0 0 0 0 0 0 -0 -0 -0 0 0 0 0 0
0 -0 0 0 0 -0 0 0 0 0 0 0 0 0 0 0 0 0 0 0 0 0 0 0 0 0 0 0 0 0 0 0 0 0 0 0 0 0 0 0 0 0 0 0 0
0 0 0 0 0 0 0 0 0 0 0 0 0 0 0 0 0 0 0 0 0 0 0 0 0 0 0 0 0 0 0 0 0 0 0 0 0 -0 -0 -0 -0 0 0 0 0
-0 0 0 0 0 0 0 0 0 0 0 0 0 0 0 0 0 0 0 0 0 0 0 0 0 0 0 0 0 0 0 0 0 0 0 0 0 0 0 0 0 0 0 0 0
0 0 0 0 0 0 0 0 0 0 0 0 0 0 0 0 0 0 0 0 0 0 0 0 0 0 0 0 0 0 0 0 0 0 0 0 0 0 0 0 0 0 0 0 0
0 0 0 0 0 0 0 0 0 0 0 0 0 0 0 0 0 0 0 0 0 0 0 0 0 0 0 0 0 0 0 0 0 0 0 0 0 -0 -0 0 0 0 -0 -0 -0
0 0 0 0 0 0 0 0 0 0 0 0 0 0 0 0 0 0 0 0 0 0 0 0 0 0 0 0 0 0 0 0 0 0 0 0 0 0 0 0 0 -0 -0 0 -0
0 0 0 0 0 0 0 0 0 0 0 0 0 0 0 0 0 0 0 0 0 0 0 0 0 0 0 0 0 0 0 0 0 0 0 0 0 0 0 0 0 0 0 0 0
0 0 0 0 0 0 0 0 0 0 0 0 0 0 0 0 0 0 0 0 0 0 0 0 0 0 0 0 0 0 0 0 0 0 0 0 0 0 0 0 0 0 0 0 0
0 0 0 -0 0 0 0 0 0 0 0 0 0 0 0 0 0 0 0 0 0 0 0 0 0 0 0 0 0 0 0 0 0 0 0 0 0 0 0 0 0 0 0 0 0
0 -0 0 -0 0 0 0 0 -0 0 0 0 0 0 0 0 0 0 -0 -0 -0 0 0 0 0 0 0 0 0 0 0 0 0 0 0 0 0 0 0 0 0 0 0 0 0
0 0 0 0 0 0 0 0 0 0 0 0 0 0 0 0 0 0 0 0 0 0 0 0 0 0 0 0 0 0 0 0 0 0 0 0 0 0 0 0 0 0 0 0 0
Wind_Speed_500mb
41 36 30 33 28 25 31 28 25 21 33 22 15 15 31 25 26 18 31 27 27 25 27 30 22 29 23 15 10 1 8 7 13 14 10 23 8 19 11 19 10 9 15 25 41
41 43 39 36 37 26 29 30 26 22 20 35 35 18 14 18 18 23 19 25 27 21 30 27 20 30 22 16 7 8 6 14 12 7 10 27 16 30 12 14 7 11 17 36 40
34 43 44 38 41 34 27 31 28 25 21 22 29 29 14 12 15 16 12 28 25 27 25 24 26 26 19 15 12 4 5 5 3 6 16 25 19 20 24 5 17 29 31 41 40
31 33 43 44 42 38 31 29 30 26 24 27 28 22 16 20 7 8 25 17 30 34 28 15 8 11 11 9 9 5 6 3 5 8 15 20 25 15 27 10 16 21 31 41 42
29 27 33 28 31 35 35 33 30 31 28 25 27 28 27 17 10 6 19 38 42 33 24 6 16 3 9 9 6 3 1 9 12 15 18 24 7 8 27 10 9 25 34 38 37
30 29 27 33 25 24 29 32 26 35 33 29 30 34 34 13 16 13 17 29 30 18 6 13 15 25 14 6 7 6 4 5 5 10 10 10 4 7 7 23 12 24 35 38 37
30 28 28 36 29 21 23 28 25 34 37 32 31 35 32 35 13 26 23 22 23 24 5 15 17 12 10 3 8 5 1 6 1 3 5 9 3 12 7 18 18 26 36 38 38
31 21 24 22 37 27 24 25 19 31 35 33 31 33 14 32 24 20 29 23 15 15 30 16 17 12 4 4 8 9 8 2 6 7 2 8 12 17 19 17 22 22 32 41 42
29 25 20 26 22 36 29 22 18 24 32 36 38 22 11 19 36 21 27 28 18 12 12 28 17 11 5 8 6 10 3 4 10 10 5 6 11 5 18 24 28 27 31 39 42
31 27 22 21 20 28 34 18 18 26 43 44 29 16 17 17 31 42 24 25 16 15 13 10 6 9 6 6 10 8 7 7 9 7 5 2 15 12 3 21 30 32 39 41 43
34 30 23 19 16 29 32 17 13 6 35 6 31 7 21 25 28 34 29 29 26 17 9 5 6 17 17 16 5 8 5 6 5 7 3 10 13 26 12 20 32 40 42 43 49
37 33 28 20 13 30 26 15 9 11 15 21 16 13 27 27 14 33 32 17 14 10 14 7 18 8 6 16 9 6 7 6 9 4 2 9 17 20 13 20 40 45 51 55 57
40 34 30 23 17 30 38 28 22 14 9 21 27 9 20 21 10 36 31 15 8 12 13 12 3 17 11 9 14 8 11 8 8 8 3 11 15 12 16 18 38 48 55 63 70
43 36 35 29 14 26 45 30 16 26 6 8 18 14 23 18 9 31 35 12 4 8 11 2 5 9 9 7 11 10 13 12 7 5 7 3 13 10 10 11 11 45 55 58 54
44 38 41 32 7 23 37 30 32 5 6 7 16 22 32 14 30 15 39 10 14 11 11 11 11 9 6 8 11 9 14 14 6 5 4 2 7 11 4 9 21 34 39 35 31
45 41 45 38 15 10 21 35 18 4 10 12 10 14 15 11 6 22 16 14 9 8 8 5 4 6 11 6 12 13 12 10 8 6 4 14 14 7 9 12 10 6 14 28 38
40 42 42 31 12 22 25 28 4 5 7 9 6 14 17 11 9 8 17 11 10 11 8 4 3 3 5 12 4 8 12 4 2 1 10 4 7 6 12 17 12 16 35 24 27
40 45 37 28 12 30 30 9 2 2 7 4 3 17 13 10 6 5 13 13 6 9 7 11 6 15 10 9 12 12 9 8 13 8 6 3 12 10 15 26 30 29 23 19 25
47 46 43 28 23 31 27 5 8 7 4 2 8 16 6 7 9 8 12 6 17 11 8 8 6 3 8 6 14 10 11 6 10 7 6 8 13 17 13 18 19 17 16 16 14
60 54 40 31 28 25 8 10 3 7 8 3 5 1 9 19 7 10 18 7 13 13 12 7 3 3 5 3 0 10 13 4 3 6 8 8 10 12 7 9 8 6 6 13 17
54 15 33 33 26 9 6 4 5 12 10 10 6 6 9 8 7 14 8 5 4 9 24 10 5 1 8 11 15 5 5 6 8 9 8 3 10 13 16 12 9 5 3 9 14
16 7 34 36 14 7 4 6 3 4 10 8 4 8 7 6 6 4 5 7 13 3 12 5 7 7 12 2 3 5 13 12 7 5 6 4 22 10 13 15 16 9 14 7 7
13 14 34 17 7 1 7 2 1 3 5 5 6 6 8 6 9 4 5 12 24 7 5 8 7 5 2 8 7 10 11 13 7 5 23 8 12 10 6 8 16 13 18 15 20
12 6 10 8 8 12 7 3 5 6 4 7 6 7 8 8 9 7 6 4 10 9 17 13 4 5 9 5 3 9 14 28 20 11 11 31 42 26 9 13 15 25 28 46 58
9 4 9 5 3 5 6 5 4 2 3 4 4 6 11 6 5 1 5 8 5 6 13 7 3 3 11 13 3 8 13 27 32 38 14 28 26 37 26 20 44 50 46 45 51
7 12 12 7 25 10 2 8 12 2 5 2 5 7 4 8 6 12 4 2 3 5 4 2 7 5 2 4 8 12 30 11 14 20 25 32 42 47 52 41 34 44 51 52 54
12 22 13 5 3 7 8 10 14 12 10 3 6 5 3 3 2 6 8 7 6 7 5 5 7 4 8 7 3 13 22 28 28 15 19 27 44 35 28 25 23 35 37 37 35
Wind_Direction_500mb
262 257 261 259 268 267 253 243 246 251 225 195 229 204 188 196 178 269 258 285 300 325 341 325 286 335 356 23 19 343 73 158 182 162 170 161 134 153 140 152 183 195 154 147 160
261 262 261 257 258 274 256 247 239 239 244 231 239 241 175 191 199 228 271 262 298 312 336 343 307 336 347 9 9 67 106 190 173 184 171 168 158 156 144 155 205 189 164 156 165
275 260 258 260 249 260 263 250 227 227 236 226 225 214 200 142 200 227 188 254 266 272 327 335 330 356 321 3 359 60 126 172 68 163 164 154 147 164 144 210 205 189 173 168 171
266 263 255 254 256 250 260 250 229 214 218 220 212 210 192 178 178 198 188 189 230 260 291 320 324 346 322 331 352 88 62 107 95 125 154 158 145 161 177 163 202 202 190 179 180
246 260 249 242 251 243 245 239 228 212 205 212 208 197 200 192 214 155 187 210 228 253 275 228 161 230 268 307 356 59 55 65 91 108 128 146 135 168 208 185 197 196 198 195 194
239 254 262 229 237 232 227 242 233 214 206 202 203 198 197 178 206 207 172 202 203 214 236 175 170 184 280 334 354 357 40 69 85 103 118 131 142 170 219 213 220 200 203 205 208
244 250 258 226 230 236 227 229 228 208 205 197 201 200 203 212 213 209 201 187 183 164 196 179 169 165 174 43 331 13 93 355 359 149 114 126 315 218 170 194 212 210 210 213 219
244 243 252 244 231 233 231 225 221 214 206 196 193 195 209 221 215 209 206 199 171 156 162 170 162 126 76 82 17 56 48 121 283 156 108 139 246 251 199 199 215 216 220 222 224
237 241 238 242 230 230 230 222 223 215 206 193 184 181 210 215 211 209 204 205 190 150 125 149 170 115 95 101 51 18 220 271 309 225 92 136 239 297 216 216 227 228 229 234 236
230 230 232 236 233 220 225 211 212 202 203 172 174 176 217 199 193 197 193 195 174 162 121 131 127 103 68 95 188 179 188 238 237 6 45 71 259 250 113 215 234 244 246 247 248
221 221 222 223 235 204 205 201 181 235 184 205 172 171 158 160 166 178 174 162 150 151 141 143 139 201 173 191 158 137 134 211 300 341 359 226 251 269 252 247 258 256 259 260 259
213 212 214 213 222 197 201 212 185 168 147 181 165 144 149 146 133 170 164 160 149 143 132 123 231 237 139 123 154 128 143 221 288 10 136 299 265 269 246 241 251 260 265 264 266
207 205 206 200 186 197 208 196 166 106 22 165 185 188 143 154 119 173 173 136 123 142 172 161 154 173 137 140 148 165 172 179 224 325 92 328 269 233 263 242 262 262 262 264 262
201 197 193 189 194 206 208 210 211 207 104 173 192 202 166 151 79 173 171 137 73 138 118 251 187 137 124 175 145 178 180 164 177 73 240 27 287 298 291 286 278 272 261 262 272
194 188 186 189 158 201 209 195 225 54 86 183 159 173 161 149 141 160 179 159 148 150 133 196 171 147 142 203 161 201 150 163 134 169 339 294 285 272 315 278 250 261 283 305 317
188 179 183 186 186 201 202 182 136 137 252 166 128 163 140 124 92 141 143 140 114 94 67 118 107 152 192 151 162 140 93 62 66 115 278 203 191 223 190 220 294 284 347 333 327
175 179 182 186 181 161 140 152 153 173 254 159 162 162 157 138 125 142 160 156 153 139 165 87 247 120 148 93 60 176 142 103 66 194 228 305 221 275 270 252 236 299 319 335 352
168 175 168 180 154 149 145 78 189 248 228 285 179 149 167 128 116 117 134 162 209 88 111 166 289 174 185 176 170 191 180 180 194 201 271 47 240 251 221 273 285 289 310 330 358
167 165 165 152 145 143 154 98 200 213 255 278 86 151 178 112 122 121 174 174 184 178 133 134 268 196 189 183 151 187 209 156 90 23 58 221 278 285 269 283 308 322 334 9 24
162 141 143 148 151 152 88 129 244 315 357 11 103 7 138 176 98 137 166 179 157 166 120 186 90 191 200 205 111 174 161 125 27 167 232 251 264 231 238 226 332 12 4 34 33
151 78 139 138 136 57 113 178 312 347 34 35 53 108 71 113 124 173 175 68 14 194 158 140 119 245 132 201 178 144 185 197 143 158 191 281 247 211 214 211 202 235 71 52 56
85 84 130 133 65 61 90 175 310 10 11 31 62 61 57 88 106 120 156 70 15 196 177 181 145 186 199 198 334 249 194 181 147 252 230 177 258 183 197 188 209 219 327 294 38
80 76 132 131 122 338 331 342 181 45 28 37 68 25 37 94 102 66 41 12 21 41 68 156 200 180 144 358 325 216 201 201 125 99 223 137 262 358 164 258 269 260 260 280 294
96 108 76 69 94 125 130 317 30 20 73 64 84 53 59 36 25 147 149 181 22 49 57 27 194 205 203 174 99 193 204 204 193 203 217 227 260 263 271 266 277 266 279 289 289
102 94 145 161 304 102 86 159 129 80 80 73 111 197 159 120 39 265 182 147 186 267 142 135 192 219 251 283 319 335 248 213 211 231 203 250 250 261 251 233 259 279 279 279 283
112 136 104 79 144 108 352 223 186 252 138 270 172 223 176 139 176 200 145 137 116 159 161 271 190 147 338 235 239 250 263 284 264 251 244 258 260 267 271 280 261 270 277 277 284
103 127 147 115 55 113 219 201 200 160 219 205 199 98 68 227 224 257 238 248 178 146 143 158 133 84 238 209 273 291 228 222 237 208 212 231 245 271 284 266 261 264 265 276 290
Wind_Speed_850mb
41 36 30 33 28 25 31 28 25 21 33 22 15 15 31 25 26 18 31 27 27 25 27 30 22 29 23 15 10 1 8 7 13 14 10 23 8 19 11 19 10 9 15 25 41
41 43 39 36 37 26 29 30 26 22 20 35 35 18 14 18 18 23 19 25 27 21 30 27 20 30 22 16 7 8 6 14 12 7 10 27 16 30 12 14 7 11 17 36 40
34 43 44 38 41 34 27 31 28 25 21 22 29 29 14 12 15 16 12 28 25 27 25 24 26 26 19 15 12 4 5 5 3 6 16 25 19 20 24 5 17 29 31 41 40
31 33 43 44 42 38 31 29 30 26 24 27 28 22 16 20 7 8 25 17 30 34 28 15 8 11 11 9 9 5 6 3 5 8 15 20 25 15 27 10 16 21 31 41 42
29 27 33 28 31 35 35 33 30 31 28 25 27 28 27 17 10 6 19 38 42 33 24 6 16 3 9 9 6 3 1 9 12 15 18 24 7 8 27 10 9 25 34 38 37
30 29 27 33 25 24 29 32 26 35 33 29 30 34 34 13 16 13 17 29 30 18 6 13 15 25 14 6 7 6 4 5 5 10 10 10 4 7 7 23 12 24 35 38 37
30 28 28 36 29 21 23 28 25 34 37 32 31 35 32 35 13 26 23 22 23 24 5 15 17 12 10 3 8 5 1 6 1 3 5 9 3 12 7 18 18 26 36 38 38
31 21 24 22 37 27 24 25 19 31 35 33 31 33 14 32 24 20 29 23 15 15 30 16 17 12 4 4 8 9 8 2 6 7 2 8 12 17 19 17 22 22 32 41 42
29 25 20 26 22 36 29 22 18 24 32 36 38 22 11 19 36 21 27 28 18 12 12 28 17 11 5 8 6 10 3 4 10 10 5 6 11 5 18 24 28 27 31 39 42
31 27 22 21 20 28 34 18 18 26 43 44 29 16 17 17 31 42 24 25 16 15 13 10 6 9 6 6 10 8 7 7 9 7 5 2 15 12 3 21 30 32 39 41 43
34 30 23 19 16 29 32 17 13 6 35 6 31 7 21 25 28 34 29 29 26 17 9 5 6 17 17 16 5 8 5 6 5 7 3 10 13 26 12 20 32 40 42 43 49
37 33 28 20 13 30 26 15 9 11 15 21 16 13 27 27 14 33 32 17 14 10 14 7 18 8 6 16 9 6 7 6 9 4 2 9 17 20 13 20 40 45 51 55 57
40 34 30 23 17 30 38 28 22 14 9 21 27 9 20 21 10 36 31 15 8 12 13 12 3 17 11 9 14 8 11 8 8 8 3 11 15 12 16 18 38 48 55 63 70
43 36 35 29 14 26 45 30 16 26 6 8 18 14 23 18 9 31 35 12 4 8 11 2 5 9 9 7 11 10 13 12 7 5 7 3 13 10 10 11 11 45 55 58 54
44 38 41 32 7 23 37 30 32 5 6 7 16 22 32 14 30 15 39 10 14 11 11 11 11 9 6 8 11 9 14 14 6 5 4 2 7 11 4 9 21 34 39 35 31
45 41 45 38 15 10 21 35 18 4 10 12 10 14 15 11 6 22 16 14 9 8 8 5 4 6 11 6 12 13 12 10 8 6 4 14 14 7 9 12 10 6 14 28 38
40 42 42 31 12 22 25 28 4 5 7 9 6 14 17 11 9 8 17 11 10 11 8 4 3 3 5 12 4 8 12 4 2 1 10 4 7 6 12 17 12 16 35 24 27
40 45 37 28 12 30 30 9 2 2 7 4 3 17 13 10 6 5 13 13 6 9 7 11 6 15 10 9 12 12 9 8 13 8 6 3 12 10 15 26 30 29 23 19 25
47 46 43 28 23 31 27 5 8 7 4 2 8 16 6 7 9 8 12 6 17 11 8 8 6 3 8 6 14 10 11 6 10 7 6 8 13 17 13 18 19 17 16 16 14
60 54 40 31 28 25 8 10 3 7 8 3 5 1 9 19 7 10 18 7 13 13 12 7 3 3 5 3 0 10 13 4 3 6 8 8 10 12 7 9 8 6 6 13 17
54 15 33 33 26 9 6 4 5 12 10 10 6 6 9 8 7 14 8 5 4 9 24 10 5 1 8 11 15 5 5 6 8 9 8 3 10 13 16 12 9 5 3 9 14
16 7 34 36 14 7 4 6 3 4 10 8 4 8 7 6 6 4 5 7 13 3 12 5 7 7 12 2 3 5 13 12 7 5 6 4 22 10 13 15 16 9 14 7 7
13 14 34 17 7 1 7 2 1 3 5 5 6 6 8 6 9 4 5 12 24 7 5 8 7 5 2 8 7 10 11 13 7 5 23 8 12 10 6 8 16 13 18 15 20
12 6 10 8 8 12 7 3 5 6 4 7 6 7 8 8 9 7 6 4 10 9 17 13 4 5 9 5 3 9 14 28 20 11 11 31 42 26 9 13 15 25 28 46 58
9 4 9 5 3 5 6 5 4 2 3 4 4 6 11 6 5 1 5 8 5 6 13 7 3 3 11 13 3 8 13 27 32 38 14 28 26 37 26 20 44 50 46 45 51
7 12 12 7 25 10 2 8 12 2 5 2 5 7 4 8 6 12 4 2 3 5 4 2 7 5 2 4 8 12 30 11 14 20 25 32 42 47 52 41 34 44 51 52 54
12 22 13 5 3 7 8 10 14 12 10 3 6 5 3 3 2 6 8 7 6 7 5 5 7 4 8 7 3 13 22 28 28 15 19 27 44 35 28 25 23 35 37 37 35
Wind_Direction_850mb
262 257 261 259 268 267 253 243 246 251 225 195 229 204 188 196 178 269 258 285 300 325 341 325 286 335 356 23 19 343 73 158 182 162 170 161 134 153 140 152 183 195 154 147 160
261 262 261 257 258 274 256 247 239 239 244 231 239 241 175 191 199 228 271 262 298 312 336 343 307 336 347 9 9 67 106 190 173 184 171 168 158 156 144 155 205 189 164 156 165
275 260 258 260 249 260 263 250 227 227 236 226 225 214 200 142 200 227 188 254 266 272 327 335 330 356 321 3 359 60 126 172 68 163 164 154 147 164 144 210 205 189 173 168 171
266 263 255 254 256 250 260 250 229 214 218 220 212 210 192 178 178 198 188 189 230 260 291 320 324 346 322 331 352 88 62 107 95 125 154 158 145 161 177 163 202 202 190 179 180
246 260 249 242 251 243 245 239 228 212 205 212 208 197 200 192 214 155 187 210 228 253 275 228 161 230 268 307 356 59 55 65 91 108 128 146 135 168 208 185 197 196 198 195 194
239 254 262 229 237 232 227 242 233 214 206 202 203 198 197 178 206 207 172 202 203 214 236 175 170 184 280 334 354 357 40 69 85 103 118 131 142 170 219 213 220 200 203 205 208
244 250 258 226 230 236 227 229 228 208 205 197 201 200 203 212 213 209 201 187 183 164 196 179 169 165 174 43 331 13 93 355 359 149 114 126 315 218 170 194 212 210 210 213 219
244 243 252 244 231 233 231 225 221 214 206 196 193 195 209 221 215 209 206 199 171 156 162 170 162 126 76 82 17 56 48 121 283 156 108 139 246 251 199 199 215 216 220 222 224
237 241 238 242 230 230 230 222 223 215 206 193 184 181 210 215 211 209 204 205 190 150 125 149 170 115 95 101 51 18 220 271 309 225 92 136 239 297 216 216 227 228 229 234 236
230 230 232 236 233 220 225 211 212 202 203 172 174 176 217 199 193 197 193 195 174 162 121 131 127 103 68 95 188 179 188 238 237 6 45 71 259 250 113 215 234 244 246 247 248
221 221 222 223 235 204 205 201 181 235 184 205 172 171 158 160 166 178 174 162 150 151 141 143 139 201 173 191 158 137 134 211 300 341 359 226 251 269 252 247 258 256 259 260 259
213 212 214 213 222 197 201 212 185 168 147 181 165 144 149 146 133 170 164 160 149 143 132 123 231 237 139 123 154 128 143 221 288 10 136 299 265 269 246 241 251 260 265 264 266
207 205 206 200 186 197 208 196 166 106 22 165 185 188 143 154 119 173 173 136 123 142 172 161 154 173 137 140 148 165 172 179 224 325 92 328 269 233 263 242 262 262 262 264 262
201 197 193 189 194 206 208 210 211 207 104 173 192 202 166 151 79 173 171 137 73 138 118 251 187 137 124 175 145 178 180 164 177 73 240 27 287 298 291 286 278 272 261 262 272
194 188 186 189 158 201 209 195 225 54 86 183 159 173 161 149 141 160 179 159 148 150 133 196 171 147 142 203 161 201 150 163 134 169 339 294 285 272 315 278 250 261 283 305 317
188 179 183 186 186 201 202 182 136 137 252 166 128 163 140 124 92 141 143 140 114 94 67 118 107 152 192 151 162 140 93 62 66 115 278 203 191 223 190 220 294 284 347 333 327
175 179 182 186 181 161 140 152 153 173 254 159 162 162 157 138 125 142 160 156 153 139 165 87 247 120 148 93 60 176 142 103 66 194 228 305 221 275 270 252 236 299 319 335 352
168 175 168 180 154 149 145 78 189 248 228 285 179 149 167 128 116 117 134 162 209 88 111 166 289 174 185 176 170 191 180 180 194 201 271 47 240 251 221 273 285 289 310 330 358
167 165 165 152 145 143 154 98 200 213 255 278 86 151 178 112 122 121 174 174 184 178 133 134 268 196 189 183 151 187 209 156 90 23 58 221 278 285 269 283 308 322 334 9 24
162 141 143 148 151 152 88 129 244 315 357 11 103 7 138 176 98 137 166 179 157 166 120 186 90 191 200 205 111 174 161 125 27 167 232 251 264 231 238 226 332 12 4 34 33
151 78 139 138 136 57 113 178 312 347 34 35 53 108 71 113 124 173 175 68 14 194 158 140 119 245 132 201 178 144 185 197 143 158 191 281 247 211 214 211 202 235 71 52 56
85 84 130 133 65 61 90 175 310 10 11 31 62 61 57 88 106 120 156 70 15 196 177 181 145 186 199 198 334 249 194 181 147 252 230 177 258 183 197 188 209 219 327 294 38
80 76 132 131 122 338 331 342 181 45 28 37 68 25 37 94 102 66 41 12 21 41 68 156 200 180 144 358 325 216 201 201 125 99 223 137 262 358 164 258 269 260 260 280 294
96 108 76 69 94 125 130 317 30 20 73 64 84 53 59 36 25 147 149 181 22 49 57 27 194 205 203 174 99 193 204 204 193 203 217 227 260 263 271 266 277 266 279 289 289
102 94 145 161 304 102 86 159 129 80 80 73 111 197 159 120 39 265 182 147 186 267 142 135 192 219 251 283 319 335 248 213 211 231 203 250 250 261 251 233 259 279 279 279 283
112 136 104 79 144 108 352 223 186 252 138 270 172 223 176 139 176 200 145 137 116 159 161 271 190 147 338 235 239 250 263 284 264 251 244 258 260 267 271 280 261 270 277 277 284
103 127 147 115 55 113 219 201 200 160 219 205 199 98 68 227 224 257 238 248 178 146 143 158 133 84 238 209 273 291 228 222 237 208 212 231 245 271 284 266 261 264 265 276 290